FW0735 Weather Reports


time (UTC)temp
F
wind
direction
speed
knots
gust
knots
rain 1hr
in
rain 24hr
in
rain mn
in
humidity
%
barometer
mb
20260507213509 64 302 5.2 10.4 0.00 0.00 0.00 69 1018.3
20260507213020 64 310 4.3 9.6 0.00 0.00 0.00 69 1018.3
20260507212508 64 326 6.1 10.4 0.00 0.00 0.00 69 1018.3
20260507212009 64 302 4.3 10.4 0.00 0.00 0.00 70 1018.3
20260507211526 64 300 5.2 9.6 0.00 0.00 0.00 70 1018.3
20260507211010 64 330 5.2 9.6 0.00 0.00 0.00 70 1018.3
20260507210503 64 311 4.3 12.2 0.00 0.00 0.00 70 1018.3
20260507210011 64 326 5.2 12.2 0.00 0.00 0.00 71 1018.4
20260507205503 64 331 7.0 14.8 0.00 0.00 0.00 71 1018.4
20260507205006 64 329 7.0 16.5 0.00 0.00 0.00 71 1018.4
20260507204514 64 300 7.8 16.5 0.00 0.00 0.00 71 1018.4
20260507204005 64 331 6.1 13.9 0.00 0.00 0.00 71 1018.3
20260507203509 64 309 5.2 13.9 0.00 0.00 0.00 71 1018.4
20260507203019 64 330 6.1 13.9 0.00 0.00 0.00 70 1018.4
20260507202509 65 290 7.8 13.9 0.00 0.00 0.00 70 1018.4
20260507202009 65 280 7.0 12.2 0.00 0.00 0.00 70 1018.4
20260507201527 65 312 7.0 11.3 0.00 0.00 0.00 69 1018.4
20260507201007 65 319 5.2 11.3 0.00 0.00 0.00 67 1018.4
20260507200510 65 335 6.1 12.2 0.00 0.00 0.00 66 1018.4
20260507200027 65 307 4.3 12.2 0.00 0.00 0.00 66 1018.4
20260507195507 65 319 5.2 10.4 0.00 0.00 0.00 67 1018.3
20260507195003 65 325 5.2 8.7 0.00 0.00 0.00 67 1018.3
20260507194511 65 295 4.3 12.2 0.00 0.00 0.00 68 1018.4
20260507194003 65 318 6.1 12.2 0.00 0.00 0.00 67 1018.4
20260507193506 65 302 7.0 11.3 0.00 0.00 0.00 66 1018.4
20260507193014 65 328 4.3 11.3 0.00 0.00 0.00 64 1018.4
20260507192505 65 327 5.2 11.3 0.00 0.00 0.00 65 1018.4
20260507192014 65 302 4.3 11.3 0.00 0.00 0.00 65 1018.4
20260507191520 65 302 5.2 11.3 0.00 0.00 0.00 66 1018.4
20260507191007 65 344 3.5 7.8 0.00 0.00 0.00 66 1018.4
20260507190510 65 314 4.3 8.7 0.00 0.00 0.00 66 1018.4
20260507190027 65 328 3.5 8.7 0.00 0.00 0.00 66 1018.3
20260507185509 65 312 4.3 8.7 0.00 0.00 0.00 65 1018.4
20260507185011 65 323 3.5 8.7 0.00 0.00 0.00 65 1018.3
20260507184525 66 304 3.5 7.0 0.00 0.00 0.00 65 1018.3
20260507184007 66 327 2.6 6.1 0.00 0.00 0.00 65 1018.2
20260507183504 66 317 1.7 6.1 0.00 0.00 0.00 65 1018.3
20260507183040 66 322 2.6 5.2 0.00 0.00 0.00 65 1018.3
20260507182505 66 330 1.7 8.7 0.00 0.00 0.00 65 1018.2
20260507182009 66 302 1.7 8.7 0.00 0.00 0.00 65 1018.2
20260507181515 66 317 3.5 8.7 0.00 0.00 0.00 65 1018.2
20260507181005 66 325 4.3 8.7 0.00 0.00 0.00 65 1018.2
20260507180511 66 18 3.5 7.0 0.00 0.00 0.00 66 1018.1
20260507180021 66 356 1.7 6.1 0.00 0.00 0.00 67 1018.0
20260507175511 66 23 1.7 7.0 0.00 0.00 0.00 70 1018.0
20260507175007 66 7 2.6 7.0 0.00 0.00 0.00 70 1018.0
20260507174523 66 317 2.6 6.1 0.00 0.00 0.00 71 1017.9
20260507174009 66 323 2.6 6.1 0.00 0.00 0.00 72 1017.9
20260507173509 65 303 3.5 5.2 0.00 0.00 0.00 73 1017.9
20260507173031 65 283 4.3 6.1 0.00 0.00 0.00 72 1017.8
20260507172509 66 297 4.3 7.8 0.00 0.00 0.00 72 1017.9
20260507172006 66 298 4.3 8.7 0.00 0.00 0.00 73 1017.9
20260507171511 66 264 7.0 8.7 0.00 0.00 0.00 72 1017.9
20260507171008 66 249 6.1 8.7 0.00 0.00 0.00 72 1017.9
20260507170507 66 249 6.1 7.0 0.00 0.00 0.00 70 1017.9
20260507170017 66 253 4.3 5.2 0.00 0.00 0.00 70 1017.8
20260507165510 66 243 4.3 6.1 0.00 0.00 0.00 70 1017.7
20260507165014 66 238 3.5 7.0 0.00 0.00 0.00 70 1017.6
20260507164524 66 232 5.2 8.7 0.00 0.00 0.00 70 1017.7
20260507164010 67 233 5.2 8.7 0.00 0.00 0.00 69 1017.7
20260507163507 67 245 7.0 8.7 0.00 0.00 0.00 68 1017.8
20260507163028 67 223 6.1 8.7 0.00 0.00 0.00 67 1017.8
20260507162510 68 232 6.1 7.8 0.00 0.00 0.00 66 1017.7
20260507162018 68 210 4.3 8.7 0.00 0.00 0.00 64 1017.7
20260507161527 69 203 6.1 8.7 0.00 0.00 0.00 63 1017.7
20260507161009 70 175 4.3 7.0 0.00 0.00 0.00 61 1017.6
20260507160529 70 248 4.3 7.8 0.00 0.00 0.00 59 1017.6
20260507160015 70 219 6.1 7.8 0.00 0.00 0.00 60 1017.6
20260507155509 70 248 5.2 7.8 0.00 0.00 0.00 60 1017.6
20260507155011 70 221 6.1 7.8 0.00 0.00 0.00 59 1017.6
20260507154520 70 213 5.2 7.8 0.00 0.00 0.00 60 1017.5
20260507154010 70 247 6.1 7.8 0.00 0.00 0.00 58 1017.5
20260507153507 70 190 4.3 7.8 0.00 0.00 0.00 59 1017.6
20260507153031 70 235 6.1 9.6 0.00 0.00 0.00 58 1017.6
20260507152512 70 250 6.1 9.6 0.00 0.00 0.00 58 1017.5
20260507152007 70 233 6.1 9.6 0.00 0.00 0.00 57 1017.6
20260507151526 71 220 6.1 7.8 0.00 0.00 0.00 57 1017.7
20260507151010 71 206 3.5 7.8 0.00 0.00 0.00 53 1017.6
20260507150513 71 159 5.2 8.7 0.00 0.00 0.00 53 1017.6
20260507150026 71 182 5.2 8.7 0.00 0.00 0.00 54 1017.6
20260507145507 71 214 7.0 8.7 0.00 0.00 0.00 53 1017.6
20260507145005 71 131 2.6 5.2 0.00 0.00 0.00 52 1017.6
20260507144520 72 210 1.7 6.1 0.00 0.00 0.00 52 1017.7
20260507144007 72 207 4.3 6.1 0.00 0.00 0.00 51 1017.6
20260507143510 71 180 3.5 6.1 0.00 0.00 0.00 51 1017.7
20260507143026 71 143 4.3 8.7 0.00 0.00 0.00 51 1017.7
20260507142508 71 227 6.1 8.7 0.00 0.00 0.00 51 1017.8
20260507142010 71 205 4.3 7.0 0.00 0.00 0.00 52 1017.8
20260507141525 71 210 4.3 7.8 0.00 0.00 0.00 51 1017.8
20260507141009 71 196 4.3 8.7 0.00 0.00 0.00 51 1017.8
20260507140512 71 195 5.2 10.4 0.00 0.00 0.00 52 1017.8
20260507140029 71 214 7.0 10.4 0.00 0.00 0.00 53 1017.8
20260507135510 71 159 4.3 9.6 0.00 0.00 0.00 54 1017.9
20260507135015 71 132 6.1 10.4 0.00 0.00 0.00 56 1018.0
20260507134530 70 155 6.1 10.4 0.00 0.00 0.00 53 1018.0
20260507134009 70 137 7.0 10.4 0.00 0.00 0.00 58 1018.0
20260507133515 69 143 6.1 12.2 0.00 0.00 0.00 61 1017.9
20260507133019 69 139 7.8 12.2 0.00 0.00 0.00 60 1018.0
20260507132507 69 155 7.8 12.2 0.00 0.00 0.00 62 1018.1
20260507132009 70 137 8.7 11.3 0.00 0.00 0.00 59 1018.1
20260507131533 71 162 7.0 8.7 0.00 0.00 0.00 54 1018.2
20260507131009 70 215 5.2 10.4 0.00 0.00 0.00 55 1018.1
20260507130510 70 180 7.0 10.4 0.00 0.00 0.00 56 1018.2
20260507130030 70 188 6.1 11.3 0.00 0.00 0.00 54 1018.2
20260507125511 70 201 7.0 12.2 0.00 0.00 0.00 56 1018.3
20260507125011 69 219 7.0 12.2 0.00 0.00 0.00 57 1018.3
20260507124532 69 169 9.6 12.2 0.00 0.00 0.00 60 1018.3
20260507124016 69 148 9.6 12.2 0.00 0.00 0.00 58 1018.4
20260507123516 69 132 8.7 12.2 0.00 0.00 0.00 59 1018.4
20260507123030 68 139 8.7 12.2 0.00 0.00 0.00 64 1018.5
20260507122512 68 140 8.7 12.2 0.00 0.00 0.00 61 1018.5
20260507122010 68 129 7.8 13.0 0.00 0.00 0.00 63 1018.5
20260507121519 67 136 9.6 13.0 0.00 0.00 0.00 65 1018.5
20260507121016 68 144 8.7 13.0 0.00 0.00 0.00 64 1018.5
20260507120508 68 134 8.7 13.0 0.00 0.00 0.00 62 1018.5
20260507115513 69 132 8.7 12.2 0.00 0.00 0.00 53 1018.5
20260507115016 69 189 7.8 11.3 0.00 0.00 0.00 55 1018.6
20260507114529 69 170 5.2 13.9 0.00 0.00 0.00 54 1018.6
20260507114010 68 163 6.1 13.9 0.00 0.00 0.00 58 1018.7
20260507113510 68 160 7.8 12.2 0.00 0.00 0.00 61 1018.8
20260507113028 68 136 7.8 12.2 0.00 0.00 0.00 64 1018.9
20260507112508 68 143 8.7 12.2 0.00 0.00 0.00 64 1018.9
20260507112014 68 174 7.8 12.2 0.00 0.00 0.00 64 1018.9
20260507111530 68 125 9.6 12.2 0.00 0.00 0.00 63 1018.8
20260507110509 68 126 7.0 10.4 0.00 0.00 0.00 64 1018.8
20260507110022 67 140 8.7 11.3 0.00 0.00 0.00 62 1018.8
20260507105509 67 142 7.8 11.3 0.00 0.00 0.00 64 1018.8
20260507105016 67 125 8.7 11.3 0.00 0.00 0.00 63 1018.8
20260507104528 67 145 7.8 11.3 0.00 0.00 0.00 63 1018.8
20260507102509 68 130 9.6 11.3 0.00 0.00 0.00 64 1018.8
20260507102015 67 136 7.8 10.4 0.00 0.00 0.00 63 1018.8
20260507101552 68 154 7.8 12.2 0.00 0.00 0.00 63 1018.8
20260507101011 68 141 8.7 12.2 0.00 0.00 0.00 62 1018.7
20260507100510 67 141 7.8 11.3 0.00 0.00 0.00 63 1018.8
20260507095510 67 138 7.8 11.3 0.00 0.00 0.00 60 1019.0
20260507095005 67 139 7.8 12.2 0.00 0.00 0.00 60 1019.1
20260507094003 67 143 8.7 12.2 0.00 0.00 0.00 61 1019.0
20260507093516 68 146 8.7 11.3 0.00 0.00 0.00 61 1019.2
20260507093007 67 127 8.7 11.3 0.00 0.00 0.00 61 1019.2
20260507091530 67 124 10.4 13.9 0.00 0.00 0.00 60 1019.0
20260507085003 67 127 11.3 13.0 0.00 0.00 0.00 63 1019.2
20260507084503 67 124 10.4 14.8 0.00 0.00 0.00 59 1019.2
20260507084002 67 136 8.7 14.8 0.00 0.00 0.00 63 1019.2
20260507083503 66 109 9.6 13.9 0.00 0.00 0.00 63 1019.1
20260507082005 67 143 9.6 13.0 0.00 0.00 0.00 64 1019.2
20260507081003 67 117 8.7 12.2 0.00 0.00 0.00 64 1019.3
20260507080515 67 134 7.8 11.3 0.00 0.00 0.00 62 1019.4
20260507080037 67 114 7.0 12.2 0.00 0.00 0.00 57 1019.4
20260507075506 67 99 7.8 12.2 0.00 0.00 0.00 58 1019.4
20260507075014 67 127 7.8 10.4 0.00 0.00 0.00 56 1019.3
20260507074516 67 86 6.1 10.4 0.00 0.00 0.00 57 1019.2
20260507074003 67 84 5.2 9.6 0.00 0.00 0.00 58 1019.2
20260507073503 67 145 6.1 10.4 0.00 0.00 0.00 59 1019.3
20260507072503 67 62 5.2 9.6 0.00 0.00 0.00 66 1019.3
20260507072002 67 131 6.1 9.6 0.00 0.00 0.00 66 1019.3
20260507071507 67 119 7.0 9.6 0.00 0.00 0.00 64 1019.2
20260507071003 68 102 3.5 6.1 0.00 0.00 0.00 65 1019.2
20260507070503 67 77 4.3 7.0 0.00 0.00 0.00 63 1019.2
20260507070012 67 115 3.5 7.0 0.00 0.00 0.00 62 1019.1
20260507065505 67 136 3.5 7.0 0.00 0.00 0.00 63 1019.1
20260507065012 67 122 4.3 7.0 0.00 0.00 0.00 63 1019.2
20260507064515 66 84 3.5 7.0 0.00 0.00 0.00 62 1019.2
20260507064007 67 105 3.5 5.2 0.00 0.00 0.00 61 1019.1
20260507063507 66 118 2.6 6.1 0.00 0.00 0.00 61 1019.2
20260507063019 66 116 3.5 6.1 0.00 0.00 0.00 63 1019.2
20260507062503 66 90 4.3 6.1 0.00 0.00 0.00 64 1019.2
20260507062003 66 91 3.5 5.2 0.00 0.00 0.00 65 1019.1
20260507061504 66 88 4.3 5.2 0.00 0.00 0.00 64 1019.1
20260507061003 67 113 2.6 5.2 0.00 0.00 0.00 60 1019.1
20260507060503 66 70 2.6 5.2 0.00 0.00 0.00 59 1019.0
20260507060005 67 111 2.6 4.3 0.00 0.00 0.00 60 1019.0
20260507055503 67 65 0.9 4.3 0.00 0.00 0.00 59 1019.1
20260507055006 66 53 1.7 4.3 0.00 0.00 0.00 58 1019.1
20260507054513 66 56 1.7 4.3 0.00 0.00 0.00 57 1019.0
20260507054004 67 49 0.9 4.3 0.00 0.00 0.00 60 1019.0
20260507053506 67 69 1.7 2.6 0.00 0.00 0.00 59 1019.0
20260507053017 67 132 0.9 2.6 0.00 0.00 0.00 62 1018.9
20260507052506 67 134 0.0 2.6 0.00 0.00 0.00 65 1018.9
20260507052009 67 68 0.0 2.6 0.00 0.00 0.00 63 1018.8
20260507051521 66 70 0.0 1.7 0.00 0.00 0.00 59 1018.8
20260507051007 65 37 0.0 1.7 0.00 0.00 0.00 61 1018.8
20260507050503 65 18 0.0 0.0 0.00 0.00 0.00 62 1018.8
20260507045510 62 359 0.0 0.9 0.00 0.00 0.00 65 1018.7
20260507045003 61 10 0.0 1.7 0.00 0.00 0.00 66 1018.7
20260507044546 60 309 0.0 1.7 0.00 0.00 0.00 67 1018.7
20260507043507 59 290 0.9 1.7 0.00 0.00 0.00 68 1018.5
20260507043040 58 290 0.9 1.7 0.00 0.00 0.00 68 1018.5
20260507042511 58 310 0.9 1.7 0.00 0.00 0.00 68 1018.5
20260507042012 58 311 0.9 1.7 0.00 0.00 0.00 68 1018.5
20260507041531 58 311 0.9 1.7 0.00 0.00 0.00 68 1018.5
20260507041006 58 330 0.0 1.7 0.00 0.00 0.00 69 1018.4
20260507040511 57 308 0.0 1.7 0.00 0.00 0.00 69 1018.4
20260507035516 57 305 1.7 3.5 0.00 0.00 0.00 69 1018.3
20260507035004 57 304 1.7 3.5 0.00 0.00 0.00 70 1018.4
20260507034010 56 294 2.6 3.5 0.00 0.00 0.00 71 1018.2
20260507033504 56 304 2.6 3.5 0.00 0.00 0.00 73 1018.2
20260507033032 56 299 2.6 3.5 0.00 0.00 0.00 74 1018.0
20260507032507 56 307 2.6 3.5 0.00 0.00 0.00 76 1018.1
20260507032006 55 302 2.6 3.5 0.00 0.00 0.00 78 1018.0
20260507031516 55 300 3.5 3.5 0.00 0.00 0.00 78 1017.9
20260507031011 55 303 2.6 3.5 0.00 0.00 0.00 78 1017.9
20260507030527 55 308 2.6 3.5 0.00 0.00 0.00 79 1018.0
20260507030056 56 302 1.7 2.6 0.00 0.00 0.00 78 1017.9
20260507025511 56 307 1.7 2.6 0.00 0.00 0.00 79 1017.9
20260507025011 56 307 1.7 2.6 0.00 0.00 0.00 79 1017.9
20260507024531 56 302 0.9 2.6 0.00 0.00 0.00 79 1017.8
20260507024007 56 306 2.6 2.6 0.00 0.00 0.00 79 1017.8
20260507023511 56 297 2.6 2.6 0.00 0.00 0.00 79 1017.8
20260507022504 56 307 0.9 3.5 0.00 0.00 0.00 78 1017.7
20260507022005 56 311 1.7 3.5 0.00 0.00 0.00 78 1017.7
20260507021514 57 306 1.7 2.6 0.00 0.00 0.00 79 1017.6
20260507021013 57 306 1.7 2.6 0.00 0.00 0.00 79 1017.6
20260507020514 57 307 0.9 1.7 0.00 0.00 0.00 79 1017.6
20260507020022 57 307 0.0 2.6 0.00 0.00 0.00 79 1017.5
20260507015509 57 310 0.0 2.6 0.00 0.00 0.00 79 1017.6
20260507015021 57 309 0.9 2.6 0.00 0.00 0.00 79 1017.5
20260507014527 57 314 0.9 3.5 0.00 0.00 0.00 79 1017.5
20260507014008 57 307 1.7 3.5 0.00 0.00 0.00 79 1017.5
20260507013518 57 316 0.9 2.6 0.00 0.00 0.00 78 1017.5
20260507013028 57 311 0.9 2.6 0.00 0.00 0.00 78 1017.5
20260507012507 57 314 1.7 4.3 0.00 0.00 0.00 78 1017.4
20260507011513 58 338 1.7 4.3 0.00 0.00 0.00 78 1017.4
20260507011008 58 287 1.7 2.6 0.00 0.00 0.00 78 1017.4
20260507010506 58 317 1.7 2.6 0.00 0.00 0.00 78 1017.5
20260507010028 58 316 1.7 4.3 0.00 0.00 0.00 78 1017.5
20260507005513 58 326 1.7 4.3 0.00 0.00 0.00 78 1017.4
20260507005006 58 328 1.7 2.6 0.00 0.00 0.00 78 1017.4
20260507004011 58 319 0.9 3.5 0.00 0.00 0.00 77 1017.4
20260507003511 58 323 1.7 3.5 0.00 0.00 0.00 77 1017.4
20260507003026 59 306 0.9 2.6 0.00 0.00 0.00 76 1017.4
20260507002514 59 307 0.9 2.6 0.00 0.00 0.00 76 1017.5
20260507002015 59 311 0.9 1.7 0.00 0.00 0.00 76 1017.5
20260507001531 59 319 0.9 2.6 0.00 0.00 0.00 76 1017.5
20260507001027 59 313 0.9 2.6 0.00 0.00 0.00 75 1017.5
20260507000506 59 301 0.9 2.6 0.00 0.00 0.00 75 1017.5
20260507000012 59 320 0.9 2.6 0.00 0.00 0.00 75 1017.5
20260506235507 59 306 0.9 3.5 0.00 0.00 0.00 75 1017.5
20260506235013 59 311 2.6 3.5 0.00 0.00 0.00 75 1017.5
20260506234517 59 330 1.7 3.5 0.00 0.00 0.00 75 1017.5
20260506234009 59 319 2.6 5.2 0.00 0.00 0.00 75 1017.5
20260506233510 59 297 2.6 5.2 0.00 0.00 0.00 75 1017.5
20260506233028 59 304 1.7 3.5 0.00 0.00 0.00 74 1017.5
20260506232628 59 311 1.7 3.5 0.00 0.00 0.00 74 1017.5
20260506232040 60 310 1.7 3.5 0.00 0.00 0.00 74 1017.5
20260506231529 60 323 1.7 3.5 0.00 0.00 0.00 74 1017.5
20260506231008 59 314 1.7 4.3 0.00 0.00 0.00 74 1017.6
20260506230510 59 315 2.6 4.3 0.00 0.00 0.00 74 1017.6
20260506224514 60 317 1.7 5.2 0.00 0.00 0.00 74 1017.6
20260506224007 60 306 2.6 5.2 0.00 0.00 0.00 74 1017.7
20260506223509 60 298 3.5 5.2 0.00 0.00 0.00 75 1017.7
20260506223019 60 294 2.6 6.1 0.00 0.00 0.00 75 1017.6
20260506222511 60 343 3.5 6.1 0.00 0.00 0.00 75 1017.6
20260506222009 60 314 4.3 7.8 0.00 0.00 0.00 75 1017.6
20260506221525 60 300 5.2 7.8 0.00 0.00 0.00 75 1017.7
20260506221008 60 313 4.3 7.0 0.00 0.00 0.00 75 1017.7
20260506220512 60 312 5.2 7.0 0.00 0.00 0.00 75 1017.7
20260506215013 60 321 4.3 7.0 0.00 0.00 0.00 74 1017.8
20260506214529 60 323 3.5 7.0 0.00 0.00 0.00 74 1017.8
20260506214026 60 303 4.3 6.1 0.00 0.00 0.00 73 1017.8